[[{"header":{"parameterUnit":"m.s-1","parameterCategory":1,"la1":30.2991,"la2":30.254,"lo1":-89.0895,"lo2":-89.0444,"dy":0.0017,"dx":0.0017,"nx":28,"ny":28,"refTime":"2025-08-01T03:00:00:Z","depth":0,"parameterNumber":2,"parameterNumberName":"U-component_of_WINDS"},"data":[0,0,0,0,0,0,0,0,0,0,0,0,0,0,0,0,0,0,0,0,0,0,0,0,0,0,0,0,0,0,0,0,0,0,0,0,0,0,0,0,0,0,0,0,0,0,0,0,0,0,0,0,0,0,0,0,0,0,1.9588,1.9589,0,1.969,1.9691,1.9692,1.9652,1.9649,1.9647,1.9645,1.9757,1.9762,1.9767,0,0,0,0,0,0,0,0,0,0,0,0,0,1.9363,1.9367,1.9587,1.9589,1.959,1.969,1.9691,1.9692,1.9652,1.9649,1.9646,1.9644,1.9755,1.9761,1.9767,0,0,0,0,0,0,0,0,0,0,0,0,0,1.9463,1.9369,1.9587,1.9582,1.9582,1.9689,1.9691,1.9693,1.9653,1.9649,1.9646,1.9642,1.9753,1.976,1.9768,1.9889,0,0,1.9792,1.9796,0,0,0,0,0,0,0,0,1.9457,1.9471,1.9581,1.9582,1.9583,1.9654,1.9653,1.9759,1.9654,1.9626,1.9645,1.9641,1.9726,1.9736,1.9763,1.9894,1.9899,1.9793,1.9798,1.9801,1.9803,0,0,0,0,0,0,0,1.945,1.9466,1.9628,1.9583,1.9584,1.9576,1.9586,1.9673,1.9695,1.9628,1.9626,1.9638,1.9726,1.9756,1.9765,1.99,1.9793,1.98,1.9804,1.9807,2.0135,2.0139,0,0,0,0,0,0,1.9442,1.9461,1.9625,1.9631,1.951,1.9583,1.9594,1.9635,1.9694,1.97,1.9641,1.9636,1.9744,1.9756,1.9769,1.9914,1.9801,1.9808,1.9813,2.0131,2.0136,2.014,0,0,0,0,0,0,1.9438,1.9457,1.9621,1.9545,1.9565,1.9591,1.9637,1.9639,1.9669,1.9704,1.9708,1.9667,1.9742,1.9758,1.9859,1.9917,1.9812,1.9819,2.0126,2.0133,2.0138,2.0204,0,0,0,0,0,0,1.9431,1.9456,1.9501,1.9547,1.957,1.9707,1.964,1.9644,1.9682,1.9676,1.9729,1.9735,1.974,1.9847,1.9866,1.9926,1.9825,2.0121,2.0129,2.0136,2.0197,2.0211,2.0224,0,0,0,0,0,1.9423,1.9517,1.9503,1.9523,1.9626,1.971,1.9724,1.9726,1.9686,1.9732,1.9755,1.9733,1.9907,1.9858,1.9879,1.9942,2.0118,2.0127,2.0136,2.0191,2.0208,2.0224,0,0,0,0,0,0,1.948,1.9523,1.9508,1.9619,1.9661,1.9703,1.9761,1.9745,1.9802,1.9794,1.9797,1.9809,1.9913,1.9937,1.9881,2.0061,2.0007,2.0021,2.0041,2.0059,2.0072,2.0064,1.9832,0,0,0,0,0,1.9505,1.9568,1.9603,1.9697,1.9719,1.9736,1.9773,1.9771,1.9816,1.9834,1.9864,1.991,1.9975,2.0018,2.008,2.02,2.0211,2.0254,2.0267,2.0278,2.029,2.0355,2.0374,2.017,2.017,2.017,0,0,1.9558,1.9589,1.9629,1.9709,1.9741,1.9808,1.9752,1.9825,1.9875,1.9847,1.9942,1.9966,2.0018,2.0128,2.0178,2.0152,2.0349,2.029,2.0298,2.0305,2.0366,2.0386,2.0403,2.0176,2.0175,2.0174,0,0,1.9688,1.9718,1.9799,1.9832,1.9881,1.9892,1.9911,1.9956,1.997,2.0065,2.0044,2.0105,2.0217,2.0255,2.0289,2.0432,2.0414,2.0452,2.0524,2.0587,2.0603,2.0617,2.0668,2.0687,2.0464,2.0464,2.0464,0,1.9748,1.9846,1.9844,1.9918,1.9954,1.9928,2.0011,2.0044,2.0112,2.0138,2.0107,2.0246,2.0279,2.0398,2.0432,2.0461,2.0484,2.0446,2.06,2.0615,2.0628,2.0677,2.0696,2.0468,2.0468,2.0467,2.0467,0,1.9917,1.9986,2.0046,2.0108,2.0151,2.023,2.0241,2.0285,2.0279,2.0294,2.0392,2.043,2.0499,2.0527,2.0523,2.0645,2.0627,2.0599,2.0544,2.0652,2.0698,2.0716,2.0474,2.0473,2.0471,2.047,0,0,2.0088,2.0146,2.0168,2.0196,2.0247,2.0301,2.0379,2.0443,2.0481,2.0529,2.0594,2.0689,2.0662,2.07,2.0701,2.0756,2.0866,2.072,2.0722,2.0746,2.1003,2.1024,2.1046,2.0855,2.0858,2.0861,2.0999,0,2.0221,2.0355,2.0354,2.0479,2.0542,2.0517,2.0585,2.0625,2.0641,2.0698,2.0716,2.0783,2.0743,2.0765,2.0819,2.0841,2.0918,2.0832,2.0918,2.0921,2.0905,2.107,2.1093,2.1221,2.1017,2.102,2.1022,0,2.0396,2.0446,2.0575,2.0616,2.0642,2.0703,2.0762,2.0816,2.0861,2.0869,2.0911,2.0902,2.0983,2.0925,2.1037,2.0978,2.1013,2.103,2.1035,2.1043,2.0978,2.1083,2.1262,2.1282,2.105,2.1048,2.1046,0,2.0506,2.0606,2.0696,2.0721,2.0771,2.0814,2.0837,2.0878,2.0917,2.0969,2.0994,2.1056,2.109,2.1139,2.1148,2.1105,2.1261,2.1204,2.127,2.127,2.1305,2.1303,2.1492,2.1327,2.1327,2.1327,2.1326,0,2.0656,2.0737,2.0746,2.0802,2.0891,2.0891,2.098,2.1,2.1036,2.1097,2.108,2.1138,2.1145,2.1206,2.1213,2.1305,2.1321,2.133,2.1331,2.1332,2.133,2.1355,2.1347,2.1332,2.1331,2.133,2.1329,0,2.0795,2.0805,2.0901,2.094,2.0951,2.1015,2.1049,2.1103,2.1116,2.1193,2.1211,2.1233,2.1302,2.1315,2.1399,2.1404,2.1513,2.1505,2.1497,2.1496,2.1562,2.1556,2.1774,2.1803,2.1619,2.1621,2.1622,0,2.089,2.0951,2.0995,2.1032,2.1057,2.1119,2.1157,2.1159,2.12,2.1255,2.1302,2.1369,2.1423,2.1536,2.1561,2.1624,2.1618,2.169,2.1628,2.1626,2.1619,2.1615,2.1622,2.1702,2.1704,2.1706,2.1707,0,2.1058,2.1059,2.1114,2.117,2.1215,2.1261,2.1303,2.1336,2.1344,2.1391,2.146,2.1501,2.1584,2.1652,2.1715,2.1741,2.1727,2.1726,2.1745,2.1747,2.1739,2.1744,2.153,2.1722,2.172,2.1719,2.1718,2.1718,2.1178,2.123,2.1269,2.133,2.1362,2.1402,2.1453,2.1472,2.1529,2.1595,2.1593,2.1669,2.1713,2.1795,2.1825,2.1886,2.1863,2.1891,2.1898,2.1905,2.191,2.1729,2.1898,2.1897,2.1897,2.1896,2.1896,0,2.1345,2.1368,2.1424,2.1482,2.1531,2.1509,2.1555,2.1598,2.1664,2.1704,2.1757,2.1836,2.1901,2.193,2.1995,2.2038,2.2033,2.2055,2.2052,2.2058,2.1927,2.1904,2.2058,2.2058,2.2058,2.2058,2.2058,2.2058,2.1437,2.1524,2.153,2.1633,2.1656,2.1728,2.1756,2.1793,2.1825,2.1914,2.1966,2.1984,2.202,2.2086,2.2145,2.2152,2.2177,2.2203,2.2207,2.2084,2.2068,2.2052,2.203,2.2208,2.2208,2.2333,2.2334,2.2335]},{"header":{"parameterUnit":"m.s-1","parameterCategory":1,"la1":30.2991,"la2":30.254,"lo1":-89.0895,"lo2":-89.0444,"dy":0.0017,"dx":0.0017,"nx":28,"ny":28,"refTime":"2025-08-01T03:00:00:Z","depth":0,"parameterNumber":3,"parameterNumberName":"V-component_of_WINDS"},"data":[0,0,0,0,0,0,0,0,0,0,0,0,0,0,0,0,0,0,0,0,0,0,0,0,0,0,0,0,0,0,0,0,0,0,0,0,0,0,0,0,0,0,0,0,0,0,0,0,0,0,0,0,0,0,0,0,0,0,3.163,3.1632,0,3.1802,3.1804,3.1806,3.1803,3.1801,3.1799,3.1797,3.1969,3.1976,3.1983,0,0,0,0,0,0,0,0,0,0,0,0,0,3.1296,3.1303,3.163,3.1632,3.1634,3.1802,3.1804,3.1806,3.1804,3.1801,3.1798,3.1796,3.1967,3.1975,3.1983,0,0,0,0,0,0,0,0,0,0,0,0,0,3.1452,3.1305,3.1629,3.1653,3.1657,3.1801,3.1804,3.1807,3.1804,3.1801,3.1798,3.1794,3.1965,3.1974,3.1984,3.2115,0,0,3.2015,3.2019,0,0,0,0,0,0,0,0,3.1443,3.1464,3.1648,3.1652,3.1656,3.1778,3.175,3.191,3.1805,3.1748,3.1797,3.1793,3.1908,3.1923,3.1962,3.2123,3.2131,3.2016,3.2022,3.2026,3.2029,0,0,0,0,0,0,0,3.1432,3.1457,3.1698,3.165,3.1656,3.1654,3.1673,3.178,3.1845,3.1753,3.1753,3.1774,3.191,3.1953,3.1966,3.2133,3.2016,3.2025,3.2031,3.2035,3.2411,3.2414,0,0,0,0,0,0,3.1417,3.1448,3.1692,3.1703,3.1539,3.1663,3.1684,3.1742,3.1844,3.1856,3.1777,3.1773,3.1937,3.1955,3.1972,3.2133,3.2026,3.2036,3.2042,3.2407,3.2411,3.2416,0,0,0,0,0,0,3.141,3.1439,3.1685,3.1576,3.1607,3.1672,3.1738,3.1747,3.179,3.1862,3.1873,3.1809,3.1935,3.1958,3.208,3.2139,3.204,3.205,3.2402,3.2408,3.2414,3.2455,0,0,0,0,0,0,3.14,3.1436,3.1487,3.1577,3.1613,3.1791,3.1742,3.1753,3.1808,3.1805,3.1895,3.1906,3.1934,3.2065,3.209,3.2151,3.2057,3.2397,3.2405,3.2412,3.2449,3.2462,3.2473,0,0,0,0,0,3.1389,3.1491,3.149,3.152,3.1678,3.1795,3.1815,3.1846,3.1813,3.1864,3.191,3.1904,3.2128,3.2078,3.2106,3.2171,3.2393,3.2403,3.2411,3.2443,3.2459,3.2472,0,0,0,0,0,0,3.1406,3.1503,3.1503,3.1638,3.1708,3.1794,3.186,3.1861,3.1941,3.1935,3.1969,3.1989,3.2111,3.2153,3.2094,3.2303,3.2257,3.2272,3.2271,3.2287,3.2299,3.2286,3.2066,0,0,0,0,0,3.1425,3.1513,3.1593,3.1704,3.174,3.1794,3.1846,3.1863,3.1937,3.1966,3.2021,3.2092,3.2179,3.2235,3.2318,3.2454,3.2474,3.2513,3.2525,3.2534,3.2547,3.2623,3.2641,3.2445,3.2445,3.2444,0,0,3.1466,3.1531,3.1584,3.1709,3.1766,3.1855,3.1819,3.1914,3.1981,3.198,3.21,3.2142,3.2223,3.2353,3.2413,3.2392,3.2606,3.2546,3.2553,3.256,3.2634,3.2652,3.2669,3.2451,3.245,3.2449,0,0,3.1587,3.1645,3.1744,3.1802,3.1889,3.1924,3.1948,3.2034,3.2063,3.2183,3.2185,3.2264,3.2412,3.247,3.2519,3.2663,3.266,3.2689,3.2752,3.2825,3.2841,3.2855,3.2907,3.2925,3.2701,3.2701,3.2701,0,3.1627,3.1763,3.1795,3.1892,3.1947,3.1952,3.2053,3.2107,3.2216,3.2254,3.2228,3.2416,3.247,3.2614,3.2649,3.2689,3.2717,3.2679,3.2836,3.285,3.2864,3.2914,3.2933,3.2704,3.2704,3.2704,3.2703,0,3.1808,3.1902,3.1972,3.2079,3.2142,3.224,3.2286,3.2346,3.2358,3.2396,3.2519,3.2585,3.2682,3.2717,3.273,3.2863,3.2848,3.2829,3.2783,3.2885,3.2933,3.2952,3.2709,3.2708,3.2707,3.2706,0,0,3.1945,3.2069,3.2094,3.2143,3.2239,3.2312,3.241,3.2507,3.2558,3.2633,3.2716,3.2842,3.2826,3.2881,3.29,3.2964,3.3075,3.2938,3.294,3.2961,3.3227,3.3241,3.3263,3.3073,3.3077,3.308,3.322,0,3.2076,3.2253,3.2285,3.2438,3.2526,3.2532,3.2618,3.2685,3.2723,3.2802,3.2843,3.2933,3.2904,3.2938,3.3002,3.3048,3.3129,3.3038,3.315,3.3154,3.3131,3.3287,3.3303,3.3432,3.3239,3.3242,3.3244,0,3.2254,3.2335,3.2498,3.2583,3.2621,3.2698,3.279,3.2865,3.2942,3.2965,3.3028,3.3039,3.3141,3.309,3.3231,3.3168,3.3216,3.3246,3.3251,3.3264,3.3206,3.3305,3.3474,3.3494,3.3274,3.3272,3.3269,0,3.2338,3.2488,3.2605,3.2647,3.2749,3.2803,3.2848,3.2921,3.2978,3.3057,3.3094,3.3184,3.3233,3.3302,3.3338,3.3297,3.3476,3.3428,3.3498,3.3497,3.3536,3.3533,3.3716,3.3565,3.3565,3.3564,3.3564,0,3.2482,3.2582,3.2645,3.2717,3.2828,3.2863,3.2973,3.3016,3.3082,3.3162,3.3172,3.3247,3.3289,3.3369,3.3397,3.351,3.3532,3.3553,3.3559,3.3553,3.355,3.3585,3.3577,3.357,3.3569,3.3568,3.3567,0,3.2596,3.2642,3.277,3.2857,3.2881,3.296,3.3033,3.3103,3.3141,3.3243,3.3268,3.3328,3.3423,3.3465,3.3582,3.3601,3.373,3.373,3.3705,3.3707,3.3775,3.3769,3.3988,3.4019,3.3846,3.3848,3.3849,0,3.2685,3.2762,3.2858,3.2913,3.296,3.3048,3.3107,3.3144,3.3204,3.3298,3.3357,3.3453,3.3532,3.3684,3.3737,3.3827,3.3829,3.39,3.3842,3.3834,3.3831,3.3827,3.3835,3.391,3.3912,3.3913,3.3914,0,3.2839,3.2858,3.2943,3.3036,3.3105,3.318,3.3252,3.3296,3.3345,3.3412,3.3511,3.3572,3.3693,3.3788,3.3882,3.3926,3.3929,3.3932,3.3953,3.3947,3.393,3.3942,3.3734,3.3927,3.3926,3.3925,3.3924,3.3923,3.2944,3.3013,3.3092,3.3186,3.3245,3.3313,3.3383,3.3431,3.3514,3.3616,3.3633,3.3738,3.3813,3.3939,3.3988,3.407,3.4053,3.4083,3.4091,3.4098,3.4103,3.3917,3.4087,3.4087,3.4087,3.4087,3.4086,0,3.3099,3.3151,3.3237,3.3339,3.3413,3.341,3.349,3.3552,3.3645,3.3716,3.3794,3.3907,3.4,3.4061,3.4155,3.4209,3.4212,3.4232,3.4229,3.424,3.4113,3.4086,3.4228,3.4228,3.4228,3.4228,3.4228,3.4228,3.3189,3.3306,3.3335,3.3482,3.3532,3.3637,3.3683,3.3746,3.3802,3.393,3.4008,3.4047,3.4114,3.4212,3.4297,3.4312,3.4347,3.4368,3.4382,3.4263,3.4248,3.4234,3.4209,3.4375,3.4375,3.4502,3.4504,3.4504]}]]